Precipitable_Water
0.24 0.18 0.15 0.18 0.20 0.24 0.24 0.21 0.18 0.19 0.24 0.22 0.19 0.19 0.22 0.24 0.24 0.24 0.26 0.27 0.28 0.29 0.32 0.34 0.35 0.35 0.35 0.35 0.35 0.38 0.40 0.42 0.42 0.41 0.40 0.40 0.44 0.54 0.63 0.75 0.85 0.92 0.99 1.05
0.20 0.15 0.22 0.27 0.28 0.25 0.22 0.17 0.16 0.20 0.27 0.24 0.21 0.19 0.22 0.23 0.24 0.25 0.25 0.26 0.27 0.29 0.30 0.31 0.33 0.34 0.34 0.34 0.35 0.36 0.40 0.42 0.41 0.41 0.42 0.42 0.42 0.43 0.47 0.53 0.59 0.70 0.81 0.88
0.18 0.23 0.31 0.27 0.24 0.21 0.19 0.18 0.19 0.20 0.26 0.26 0.21 0.18 0.19 0.21 0.23 0.24 0.25 0.26 0.28 0.29 0.29 0.30 0.32 0.34 0.35 0.34 0.35 0.36 0.38 0.39 0.41 0.42 0.42 0.42 0.42 0.40 0.37 0.38 0.42 0.49 0.58 0.65
0.25 0.29 0.26 0.24 0.21 0.23 0.18 0.26 0.25 0.23 0.20 0.13 0.22 0.10 0.17 0.18 0.18 0.20 0.22 0.23 0.26 0.29 0.31 0.32 0.32 0.33 0.35 0.36 0.37 0.38 0.39 0.40 0.41 0.42 0.40 0.40 0.39 0.38 0.41 0.42 0.46 0.49 0.48 0.46
0.20 0.23 0.23 0.22 0.23 0.29 0.23 0.27 0.23 0.20 0.17 0.16 0.17 0.15 0.16 0.19 0.17 0.19 0.22 0.24 0.25 0.27 0.28 0.31 0.32 0.33 0.34 0.34 0.33 0.33 0.34 0.35 0.36 0.36 0.34 0.33 0.33 0.35 0.39 0.42 0.44 0.52 0.50 0.49
0.25 0.33 0.28 0.27 0.30 0.30 0.27 0.20 0.17 0.20 0.18 0.10 0.16 0.16 0.15 0.17 0.19 0.21 0.23 0.25 0.26 0.27 0.27 0.27 0.31 0.31 0.31 0.32 0.31 0.31 0.32 0.32 0.32 0.32 0.31 0.29 0.28 0.28 0.28 0.31 0.35 0.40 0.42 0.43
0.22 0.24 0.27 0.30 0.23 0.23 0.20 0.13 0.09 0.08 0.11 0.10 0.20 0.17 0.16 0.22 0.22 0.23 0.23 0.24 0.26 0.26 0.26 0.26 0.27 0.30 0.31 0.30 0.31 0.31 0.30 0.30 0.31 0.31 0.30 0.30 0.29 0.29 0.27 0.28 0.29 0.28 0.28 0.31
0.13 0.14 0.23 0.25 0.20 0.17 0.17 0.15 0.11 0.08 0.08 0.10 0.17 0.12 0.15 0.21 0.23 0.24 0.24 0.25 0.25 0.25 0.26 0.26 0.28 0.30 0.30 0.31 0.31 0.31 0.31 0.31 0.32 0.33 0.33 0.34 0.32 0.31 0.30 0.32 0.32 0.30 0.27 0.30
0.11 0.11 0.20 0.22 0.23 0.20 0.17 0.14 0.21 0.13 0.16 0.12 0.13 0.16 0.19 0.20 0.20 0.22 0.22 0.23 0.24 0.25 0.26 0.27 0.29 0.30 0.30 0.29 0.29 0.28 0.27 0.28 0.30 0.32 0.33 0.33 0.34 0.33 0.32 0.32 0.32 0.31 0.31 0.31
0.15 0.11 0.15 0.18 0.21 0.21 0.20 0.21 0.14 0.15 0.10 0.09 0.11 0.12 0.12 0.16 0.17 0.20 0.20 0.22 0.24 0.26 0.27 0.27 0.27 0.27 0.27 0.27 0.26 0.27 0.27 0.27 0.29 0.31 0.33 0.33 0.34 0.34 0.34 0.33 0.30 0.31 0.33 0.33
0.17 0.14 0.13 0.16 0.16 0.16 0.17 0.16 0.18 0.18 0.16 0.11 0.10 0.11 0.17 0.16 0.18 0.19 0.21 0.24 0.25 0.24 0.26 0.27 0.27 0.26 0.24 0.24 0.25 0.25 0.27 0.29 0.29 0.31 0.31 0.33 0.33 0.36 0.37 0.34 0.31 0.33 0.32 0.33
0.18 0.15 0.12 0.13 0.18 0.22 0.19 0.17 0.17 0.14 0.13 0.15 0.15 0.12 0.21 0.20 0.21 0.22 0.23 0.24 0.25 0.26 0.27 0.26 0.25 0.24 0.24 0.25 0.26 0.27 0.29 0.31 0.34 0.33 0.37 0.37 0.36 0.37 0.38 0.35 0.35 0.35 0.34 0.34
0.19 0.15 0.13 0.14 0.19 0.22 0.19 0.20 0.20 0.20 0.20 0.15 0.13 0.13 0.22 0.22 0.22 0.23 0.23 0.25 0.25 0.26 0.26 0.25 0.24 0.24 0.26 0.27 0.28 0.28 0.30 0.32 0.33 0.37 0.39 0.36 0.39 0.39 0.40 0.38 0.39 0.38 0.36 0.35
0.24 0.18 0.15 0.14 0.15 0.18 0.17 0.19 0.21 0.20 0.17 0.16 0.16 0.15 0.19 0.20 0.20 0.21 0.24 0.25 0.26 0.26 0.25 0.25 0.24 0.25 0.26 0.26 0.26 0.27 0.29 0.33 0.37 0.39 0.37 0.39 0.43 0.42 0.45 0.44 0.43 0.43 0.39 0.37
0.23 0.17 0.19 0.19 0.20 0.20 0.19 0.18 0.19 0.19 0.19 0.16 0.16 0.16 0.18 0.19 0.21 0.24 0.26 0.27 0.25 0.24 0.25 0.25 0.25 0.25 0.24 0.25 0.27 0.30 0.34 0.36 0.38 0.38 0.39 0.42 0.42 0.45 0.44 0.47 0.47 0.47 0.44 0.42
0.27 0.19 0.22 0.19 0.22 0.22 0.19 0.21 0.22 0.21 0.21 0.21 0.20 0.20 0.23 0.25 0.27 0.27 0.27 0.25 0.24 0.24 0.24 0.24 0.22 0.22 0.25 0.27 0.29 0.32 0.34 0.36 0.38 0.37 0.37 0.40 0.42 0.43 0.44 0.44 0.44 0.44 0.42 0.44
0.23 0.21 0.20 0.16 0.22 0.20 0.16 0.19 0.20 0.22 0.23 0.22 0.19 0.22 0.25 0.25 0.27 0.27 0.26 0.27 0.25 0.24 0.24 0.22 0.22 0.24 0.26 0.29 0.32 0.33 0.35 0.36 0.36 0.37 0.39 0.41 0.42 0.41 0.43 0.45 0.46 0.44 0.42 0.44
0.24 0.23 0.23 0.19 0.20 0.14 0.20 0.26 0.25 0.23 0.24 0.27 0.26 0.27 0.28 0.28 0.29 0.30 0.30 0.27 0.26 0.24 0.23 0.24 0.24 0.25 0.29 0.33 0.35 0.37 0.39 0.40 0.39 0.40 0.40 0.40 0.41 0.42 0.43 0.44 0.45 0.45 0.44 0.45
0.31 0.27 0.22 0.19 0.19 0.20 0.22 0.25 0.24 0.23 0.23 0.29 0.28 0.29 0.29 0.29 0.29 0.28 0.30 0.29 0.27 0.25 0.25 0.25 0.27 0.31 0.34 0.36 0.38 0.39 0.40 0.42 0.43 0.40 0.41 0.41 0.42 0.43 0.43 0.42 0.44 0.44 0.45 0.46
0.35 0.34 0.27 0.25 0.20 0.17 0.23 0.30 0.33 0.31 0.21 0.29 0.30 0.29 0.28 0.29 0.21 0.23 0.29 0.29 0.26 0.26 0.26 0.26 0.31 0.35 0.36 0.39 0.42 0.42 0.43 0.45 0.45 0.44 0.43 0.43 0.45 0.44 0.44 0.45 0.46 0.50 0.46 0.46
0.32 0.31 0.27 0.27 0.25 0.25 0.31 0.34 0.35 0.22 0.22 0.29 0.31 0.30 0.30 0.27 0.28 0.29 0.30 0.25 0.26 0.26 0.25 0.29 0.32 0.36 0.39 0.42 0.44 0.44 0.46 0.47 0.51 0.51 0.49 0.44 0.46 0.44 0.46 0.47 0.47 0.46 0.49 0.45
0.28 0.27 0.26 0.28 0.25 0.21 0.34 0.33 0.27 0.29 0.31 0.32 0.33 0.33 0.32 0.32 0.31 0.29 0.26 0.26 0.26 0.25 0.25 0.29 0.34 0.37 0.41 0.45 0.46 0.45 0.46 0.52 0.54 0.54 0.51 0.44 0.43 0.44 0.44 0.45 0.45 0.44 0.43 0.39
0.22 0.25 0.24 0.27 0.25 0.34 0.37 0.36 0.37 0.36 0.34 0.35 0.35 0.35 0.34 0.30 0.27 0.26 0.25 0.26 0.26 0.26 0.28 0.33 0.36 0.38 0.42 0.47 0.48 0.45 0.49 0.53 0.54 0.53 0.52 0.46 0.41 0.43 0.42 0.42 0.42 0.41 0.38 0.34
0.29 0.35 0.31 0.30 0.30 0.35 0.37 0.39 0.39 0.38 0.36 0.38 0.37 0.35 0.32 0.28 0.27 0.25 0.26 0.25 0.25 0.27 0.30 0.35 0.38 0.40 0.41 0.46 0.49 0.50 0.52 0.54 0.53 0.51 0.50 0.48 0.38 0.37 0.39 0.40 0.39 0.35 0.33 0.32
0.31 0.34 0.32 0.29 0.33 0.34 0.35 0.36 0.36 0.38 0.39 0.37 0.36 0.33 0.31 0.29 0.26 0.27 0.26 0.25 0.26 0.28 0.32 0.36 0.38 0.41 0.42 0.46 0.49 0.50 0.54 0.54 0.50 0.51 0.50 0.49 0.41 0.36 0.37 0.39 0.37 0.35 0.35 0.34
0.34 0.28 0.27 0.26 0.34 0.34 0.33 0.37 0.38 0.36 0.35 0.35 0.33 0.31 0.32 0.29 0.27 0.27 0.26 0.27 0.28 0.30 0.33 0.36 0.40 0.41 0.43 0.46 0.49 0.52 0.55 0.53 0.50 0.48 0.50 0.49 0.47 0.39 0.38 0.36 0.36 0.39 0.39 0.41
Wind_Speed
8 7 9 10 9 7 7 7 10 11 10 9 9 10 10 11 11 11 12 14 15 16 17 18 19 20 21 23 24 25 25 26 26 27 28 28 29 30 29 29 29 30 32 36
8 9 9 7 6 6 8 9 11 11 10 11 11 11 12 12 13 13 13 14 15 16 18 20 21 23 24 25 27 28 28 29 30 31 31 32 33 34 34 34 34 33 33 34
8 8 7 7 7 7 9 9 9 11 12 12 11 14 13 13 13 14 15 16 17 19 21 22 24 26 27 29 30 31 32 33 34 35 36 37 38 38 38 38 39 38 38 38
8 7 7 6 7 7 9 9 11 13 12 13 13 16 14 14 14 15 17 19 20 23 24 25 27 29 30 32 34 35 36 37 38 39 40 40 41 42 43 43 43 42 42 42
8 7 7 8 8 8 11 12 13 13 13 13 14 13 15 11 15 16 19 21 23 25 27 29 30 32 33 35 37 39 40 41 41 42 42 43 44 44 45 45 45 45 45 45
8 9 7 8 9 9 12 11 12 10 10 12 12 12 15 14 15 16 19 23 25 27 30 32 33 34 36 38 40 42 43 44 44 44 45 45 46 46 46 46 46 46 46 47
7 8 9 8 9 10 10 10 12 12 12 13 13 16 19 16 15 18 21 25 28 30 33 35 35 37 39 42 45 46 47 48 48 48 48 48 48 48 47 47 47 48 49 49
7 8 7 9 8 9 9 9 9 14 14 17 19 17 18 16 18 20 23 27 30 33 35 36 37 39 42 46 48 49 51 52 52 51 51 50 50 50 50 50 49 50 50 50
7 9 9 8 10 10 11 11 12 14 16 18 17 20 22 19 22 23 27 30 33 34 36 38 40 43 46 48 51 53 55 56 54 53 54 53 53 53 52 51 51 49 48 48
9 10 9 11 11 11 12 12 13 15 17 20 21 23 22 22 24 26 29 32 35 37 39 41 43 46 48 52 55 55 56 56 56 56 56 57 56 54 52 51 49 48 47 46
9 10 11 12 12 13 14 15 15 16 16 19 22 23 24 23 26 27 30 34 38 40 42 44 47 50 53 55 56 57 57 57 58 58 59 58 57 55 53 51 49 47 46 45
11 11 14 14 15 17 16 17 16 17 20 20 22 29 25 26 26 28 32 38 41 42 45 47 51 54 55 56 58 58 58 59 60 61 59 59 57 56 53 50 48 46 45 43
12 13 15 17 17 17 17 18 19 19 21 23 21 27 27 28 29 32 38 42 42 44 47 51 52 54 56 58 58 60 61 61 62 58 57 57 54 52 50 48 47 45 44 42
15 16 17 18 19 19 21 21 21 21 22 25 28 36 33 32 35 38 41 42 44 46 50 51 53 56 57 58 60 61 61 61 58 57 58 54 52 51 48 47 46 44 43 42
17 19 20 23 24 24 25 26 25 26 27 28 36 33 37 35 37 40 40 43 46 49 51 53 56 57 58 59 60 61 60 58 57 57 55 52 51 48 47 46 46 46 44 43
20 21 22 24 24 25 28 30 29 31 32 35 37 42 40 37 36 39 41 44 48 51 52 56 57 58 59 60 60 60 58 56 54 53 52 50 48 47 45 44 44 44 43 41
21 21 22 26 25 29 30 26 24 27 28 28 30 33 34 35 39 40 42 46 49 51 54 56 57 58 59 59 59 58 55 53 51 50 48 47 46 44 42 42 40 41 41 40
22 22 24 27 27 26 27 27 27 29 30 31 35 36 37 39 39 40 43 45 48 52 54 55 56 58 58 59 57 54 52 51 50 49 48 47 45 42 40 38 37 36 36 37
23 23 25 25 27 34 32 25 26 27 34 32 35 36 37 38 40 41 42 43 49 51 53 54 55 56 57 56 55 52 51 51 49 49 47 47 44 40 37 36 35 34 33 33
23 24 24 25 26 29 28 28 28 30 36 31 31 34 36 37 40 42 42 47 49 50 51 53 54 55 54 54 53 51 51 49 49 47 47 45 42 39 36 35 33 33 31 30
23 26 28 27 29 34 32 29 27 28 35 32 34 36 36 37 39 44 47 48 48 50 51 52 52 51 51 51 51 50 50 48 48 46 45 43 38 36 32 31 30 29 26 28
23 23 25 24 27 32 24 24 29 33 34 35 37 37 38 39 41 43 45 47 48 48 50 50 50 49 49 49 49 50 49 48 47 44 41 40 35 32 29 26 25 25 25 24
27 27 27 27 30 30 32 34 35 35 35 36 35 36 37 39 40 42 44 45 46 47 48 49 48 48 47 46 48 49 48 49 47 42 37 36 33 29 26 23 21 20 20 19
26 25 27 28 31 37 38 37 37 36 36 34 34 34 36 38 40 42 42 43 44 45 47 47 47 45 45 46 47 48 49 49 46 40 35 32 29 26 21 17 16 15 13 12
26 25 26 32 37 37 35 32 32 32 31 31 32 33 35 37 39 39 40 42 43 44 45 45 44 43 44 46 47 48 48 48 43 39 30 27 25 21 18 14 10 7 7 9
26 27 27 32 35 35 34 32 30 29 30 31 31 32 35 36 37 37 39 41 42 43 44 43 42 42 43 45 47 47 46 45 41 34 26 23 21 18 13 7 3 5 6 8
Wind_Direction
257 263 262 263 259 264 267 272 278 283 288 300 296 291 296 301 304 307 309 311 313 314 314 316 318 320 320 319 318 315 313 311 308 306 303 300 297 293 290 286 282 278 274 269
264 259 261 253 256 266 274 280 285 289 294 298 286 291 293 295 297 299 304 307 311 312 314 314 314 315 316 315 314 313 309 307 305 303 301 297 294 292 289 287 283 280 276 274
244 252 249 253 267 279 280 275 279 284 300 304 290 293 287 292 295 299 303 305 307 309 310 311 311 311 312 312 312 310 308 306 303 301 298 296 294 292 288 286 283 281 278 275
246 257 249 260 271 276 284 278 290 290 296 292 288 298 291 287 292 297 301 305 305 308 309 308 309 309 309 310 309 308 306 304 303 301 299 296 293 291 288 286 282 279 279 277
248 258 267 272 274 276 276 294 291 291 288 298 293 297 306 294 294 295 303 308 308 307 307 306 306 307 308 308 308 307 306 304 303 301 299 297 295 292 289 286 283 279 278 276
254 259 264 268 278 286 292 296 303 302 299 302 298 296 303 296 291 297 304 311 311 311 311 309 306 307 308 309 309 308 306 304 303 301 300 298 296 293 291 288 284 281 278 276
269 265 275 280 283 293 310 310 303 307 309 292 304 303 299 292 297 299 304 309 312 311 312 311 307 307 308 309 309 309 307 305 302 301 300 298 296 293 291 289 286 283 280 277
254 272 276 289 287 286 303 301 297 296 299 301 305 296 306 299 295 300 308 310 311 312 312 312 309 308 308 309 310 309 308 305 302 300 299 298 296 294 292 289 287 285 282 278
259 271 278 284 288 293 295 306 299 302 302 305 300 303 305 301 297 299 306 310 310 312 313 312 310 309 309 309 308 308 307 305 302 300 298 296 295 294 291 289 287 285 283 280
263 279 279 281 289 303 298 296 306 308 303 301 302 304 303 297 292 298 305 308 311 310 312 312 311 310 310 309 308 308 307 305 302 300 298 296 294 293 290 288 287 285 284 281
273 277 283 288 295 291 302 301 306 300 298 297 305 304 306 293 295 298 303 308 311 311 311 312 311 311 310 309 309 308 307 305 303 300 299 297 294 292 289 286 286 284 283 281
281 279 283 284 291 293 292 294 294 298 296 300 301 304 309 303 300 302 305 310 312 310 311 312 312 312 311 310 310 308 307 305 303 302 298 297 293 290 286 283 283 282 281 280
276 284 293 295 298 298 293 294 296 298 301 294 299 302 312 308 304 303 308 310 310 311 311 312 312 312 312 312 311 310 309 307 306 303 300 298 295 292 285 281 281 280 279 277
283 282 280 282 291 294 293 294 293 294 298 297 294 299 302 299 302 305 308 309 310 311 312 312 313 314 314 314 313 312 311 310 308 305 303 298 294 290 286 281 279 279 278 275
284 284 285 287 287 290 290 289 288 286 291 292 297 299 299 303 304 306 309 311 312 313 314 315 315 315 315 315 315 314 313 312 310 307 304 300 297 291 285 281 278 277 276 274
286 287 291 290 294 293 292 291 285 285 288 291 292 296 301 303 306 308 310 311 312 314 315 316 316 316 316 317 316 316 315 314 313 311 307 303 298 293 288 281 279 277 275 272
282 286 291 289 296 295 294 291 286 294 293 294 295 299 307 306 308 309 311 312 313 315 316 317 317 318 318 318 318 317 317 316 315 314 313 308 301 295 289 285 281 277 274 269
282 284 287 289 297 292 294 297 296 290 296 293 297 300 305 306 307 309 311 312 315 316 317 318 318 319 320 320 319 318 318 317 316 314 313 311 306 297 291 286 281 279 276 268
281 283 288 289 289 294 296 298 296 295 300 297 295 303 306 308 310 311 312 315 316 318 318 319 320 320 321 321 320 319 317 317 316 315 313 312 309 299 291 286 282 280 275 269
282 284 283 288 288 289 296 297 298 301 301 303 304 306 308 312 311 314 316 317 318 319 320 320 321 322 323 323 323 321 320 317 316 316 314 314 310 304 291 287 284 279 276 267
285 284 278 283 287 292 293 293 295 303 303 305 306 308 308 308 309 312 316 317 318 319 321 322 323 324 325 326 326 325 323 320 317 316 317 315 310 307 297 288 282 278 271 271
280 280 283 286 289 293 291 294 293 298 303 303 305 305 306 308 310 313 315 317 319 321 323 324 324 325 326 327 328 328 327 326 323 317 317 318 313 311 302 292 283 277 273 271
284 280 284 277 284 291 288 292 296 298 299 301 303 305 306 309 311 314 316 318 320 322 324 325 325 325 327 329 330 330 329 330 326 321 317 320 317 313 306 294 285 276 274 266
288 286 286 290 290 285 287 293 293 293 296 299 302 305 307 309 312 314 317 319 321 323 325 326 327 327 328 330 331 331 330 331 329 324 319 320 320 318 312 298 288 279 264 249
290 289 288 289 294 294 294 294 295 295 295 298 302 304 307 311 313 315 318 320 322 324 326 328 328 328 329 331 332 333 333 333 331 329 321 321 325 321 317 305 288 262 245 249
286 286 287 288 293 293 296 297 296 295 296 298 302 306 309 312 314 316 318 321 323 325 327 328 329 329 331 333 334 335 336 337 337 334 328 326 325 326 325 318 291 262 261 272